Torna al catalogo

STARLINK-5446

AttivoComunicazioniVLEO
NORAD 54789·PAYLOAD·🇺🇸 United States

Lanciato Dec 17, 2022 da Cape Canaveral Space Force Station

Loading…

Prossimi Passaggi (prossime 24 ore)

TLE

AggiornatoSource: CelesTrak SupGP

Epoca: Sep 14, 2026, 21:13 UTC

1 54789C 22175AH  26257.88451389  .00539350  00000+0  21824-1 0  2577
2 54789  53.1591 243.0928 0001329  98.1949 328.2157 15.23905852    11

Traccia STARLINK-5446 in tempo reale con AllMySat

Download on the App Store